Overview Statistics Trail Chart Weather Telemetry Raw packets
 

This is the latest recevied weather packets stored in our database for station/object KB4MOX. If no packets are shown the sender has not sent any weather packets the latest 10 day(s).

<< 12 13 14 15 16 17 18 >>
Time Temp. Humidity Pressure Rain* Wind** Luminosity Snow
1788534962 28.33° C 77% 1018.3 hPa 0 mm - 153 W/m² -
1788534660 27.78° C 78% 1018.4 hPa 0 mm - 120 W/m² -
1788534356 27.78° C 79% 1018.3 hPa 0 mm - 120 W/m² -
1788534056 27.78° C 80% 1018.1 hPa 0 mm - 138 W/m² -
1788533755 27.78° C 80% 1018.2 hPa 0 mm - 98 W/m² -
1788533450 27.78° C 81% 1018.3 hPa 0 mm - 197 W/m² -
1788533146 27.78° C 82% 1017.9 hPa 0 mm - 93 W/m² -
1788532842 27.22° C 83% 1018.3 hPa 0 mm - 94 W/m² -
1788532538 27.22° C 83% 1018.2 hPa 0 mm - 137 W/m² -
1788532234 27.22° C 84% 1018.1 hPa 0 mm - 84 W/m² -
1788531931 26.67° C 86% 1018.1 hPa 0 mm - 119 W/m² -
1788531626 27.22° C 84% 1017.9 hPa 0 mm - 99 W/m² -
1788531320 27.78° C 82% 1017.8 hPa 0 mm - 115 W/m² -
1788531016 27.78° C 84% 1017.8 hPa 0 mm - 170 W/m² -
1788530710 27.22° C 85% 1017.9 hPa 0 mm - 161 W/m² -
1788530410 26.67° C 87% 1018.1 hPa 0 mm - 88 W/m² -
1788530109 26.67° C 87% 1018.1 hPa 0 mm - 84 W/m² -
1788529807 26.67° C 87% 1018.1 hPa 0 mm - 94 W/m² -
1788529507 26.11° C 90% 1018.1 hPa 0 mm - 90 W/m² -
1788529200 25.56° C 91% 1017.7 hPa 0 mm - 86 W/m² -
1788528895 25.56° C 92% 1017.6 hPa 0 mm - 63 W/m² -
1788528591 25.56° C 93% 1017.8 hPa 0 mm - 102 W/m² -
1788528286 25° C 93% 1017.8 hPa 0 mm - 96 W/m² -
1788527986 25° C 94% 1017.8 hPa 0 mm - 81 W/m² -
1788527681 25° C 94% 1018.1 hPa 0 mm - 92 W/m² -

* Rain latest hour (hover to see other rain measurements)
** Current wind speed in m/s (hover to see current wind gust speed)